[Date Prev][Date Next][Thread Prev][Thread Next] - [Date Index][Thread Index][Author Index]
2 Line ISS Keps 11-2
- Subject: [sarex] 2 Line ISS Keps 11-2
- From: "Dave Larsen Ph.D." <doc@xxxxxxxxxxx>
- Date: Sat, 2 Nov 2002 02:19:09 -0800
ISS
1 25544U 98067A 02306.15230324 .00038825 00000-0 51414-3 0 3281
2 25544 51.6381 80.2231 0014562 95.4779 261.5508 15.57782877225486
----
Via the sarex mailing list at AMSAT.ORG courtesy of AMSAT-NA.
To unsubscribe, send "unsubscribe sarex" to Majordomo@amsat.org
AMSAT Home